Weather History for KOKK - December, 2013

Change the Weather History Date:

Saturday, December 21, 2013

  Actual Average (KGUS) Record (KGUS)
Temperature  
Mean Temperature 38 °F -  
Max Temperature 42 °F 30 °F 51 °F (2006)
Min Temperature 35 °F 20 °F -2 °F (2008)
Degree Days  
Heating Degree Days 26    
Moisture  
Dew Point 35 °F    
Average Humidity 92    
Maximum Humidity 100    
Minimum Humidity 87    
Precipitation  
Precipitation 2.04 in - - ()
Sea Level Pressure  
Sea Level Pressure 29.70 in    
Wind  
Wind Speed 10 mph (NNE)    
Max Wind Speed 23 mph    
Max Gust Speed 32 mph    
Visibility 7 miles    
Events      
Averages and records for this station are not official NWS values.
T = Trace of Precipitation, MM = Missing Value Source: NWS Daily Summary

Daily Weather History Graph

Daily Weather History Graph

Search for Another Location

Airport or City:

Trip Planner

Search our weather history database for the weather conditions in past years. The results will help you decide how hot, cold, wet, or windy it might be!

Date:

Astronomy

Dec. 21, 2013 Rise Set
Actual Time 7:04 AM CST 4:20 PM CST
Civil Twilight 6:33 AM CST 4:51 PM CST
Nautical Twilight 5:59 AM CST 5:26 PM CST
Astronomical Twilight 5:25 AM CST 5:59 PM CST
Moon 8:37 PM CST (12/21) 9:29 AM CST (12/21)
Length of Visible Light 10h 18m
Length of Day
9h 16m
Waning Gibbous, 84% of the Moon is Illuminated
Dec 21
Waning Gibbous
Dec 25
Last Quarter
Jan 1
New
Jan 7
First Quarter
Jan 15
Full

Hourly Weather History & Observations

Time (CST) Temp. Windchill Dew Point Humidity Pressure Visibility Wind Dir Wind Speed Gust Speed Precip Events Conditions
12:15 AM 42.8 °F 36.6 °F 39.2 °F 87% 29.77 in 8.0 mi WNW 11.5 mph - N/A   Overcast
12:35 AM 42.8 °F 36.6 °F 39.2 °F 87% 29.77 in 6.0 mi WNW 11.5 mph - N/A   Overcast
12:55 AM 41.0 °F 35.2 °F 37.4 °F 87% 29.77 in 7.0 mi West 9.2 mph - N/A   Overcast
1:15 AM 39.2 °F 31.2 °F 37.4 °F 93% 29.78 in 6.0 mi West 13.8 mph - N/A   Overcast
1:35 AM 39.2 °F 32.5 °F 37.4 °F 93% 29.79 in 6.0 mi West 10.4 mph - 0.08 in   Overcast
1:55 AM 39.2 °F 35.0 °F 37.4 °F 93% 29.78 in 5.0 mi West 5.8 mph - 0.14 in   Overcast
2:15 AM 39.2 °F 33.6 °F 35.6 °F 87% 29.78 in 5.0 mi West 8.1 mph - 0.05 in   Overcast
2:35 AM 37.4 °F 33.8 °F 35.6 °F 93% 29.77 in 5.0 mi West 4.6 mph - 0.06 in   Overcast
2:55 AM 37.4 °F 31.4 °F 37.4 °F 100% 29.78 in 5.0 mi WNW 8.1 mph - 0.09 in   Overcast
3:15 AM 37.4 °F 30.3 °F 35.6 °F 93% 29.79 in 5.0 mi WNW 10.4 mph - 0.03 in   Overcast
3:35 AM 37.4 °F 29.3 °F 35.6 °F 93% 29.80 in 5.0 mi WNW 12.7 mph - 0.07 in   Overcast
3:55 AM 37.4 °F 30.3 °F 35.6 °F 93% 29.77 in 6.0 mi NW 10.4 mph - 0.08 in   Overcast
4:15 AM 35.6 °F 30.7 °F 33.8 °F 93% 29.77 in 6.0 mi NW 5.8 mph - N/A   Overcast
4:35 AM 35.6 °F 32.8 °F 33.8 °F 93% 29.78 in 6.0 mi WNW 3.5 mph - 0.01 in   Overcast
4:55 AM 35.6 °F 29.9 °F 33.8 °F 93% 29.77 in 5.0 mi WNW 6.9 mph - 0.01 in   Overcast
5:15 AM 35.6 °F 28.0 °F 33.8 °F 93% 29.79 in 5.0 mi WNW 10.4 mph - 0.01 in   Overcast
5:35 AM 35.6 °F 28.0 °F 33.8 °F 93% 29.79 in 5.0 mi NW 10.4 mph - 0.05 in   Overcast
5:55 AM 35.6 °F 29.9 °F 33.8 °F 93% 29.78 in 5.0 mi NNW 6.9 mph - 0.09 in   Overcast
6:15 AM 35.6 °F 32.8 °F 32.0 °F 87% 29.77 in 5.0 mi North 3.5 mph - 0.02 in   Overcast
6:35 AM 35.6 °F - 32.0 °F 87% 29.77 in 5.0 mi Calm Calm - 0.04 in   Overcast
6:55 AM 35.6 °F - 32.0 °F 87% 29.77 in 4.0 mi Calm Calm - 0.08 in   Overcast
7:15 AM 35.6 °F - 33.8 °F 93% 29.79 in 3.0 mi Calm Calm - 0.05 in   Mostly Cloudy
7:35 AM 35.6 °F 31.7 °F 33.8 °F 93% 29.80 in 3.0 mi NNW 4.6 mph - 0.13 in   Overcast
7:55 AM 35.6 °F 29.9 °F 33.8 °F 93% 29.81 in 2.5 mi North 6.9 mph - 0.18 in   Overcast
8:15 AM 35.6 °F 32.8 °F 33.8 °F 93% 29.81 in 3.0 mi North 3.5 mph - 0.04 in   Mostly Cloudy
8:35 AM 35.6 °F - 33.8 °F 93% 29.82 in 3.0 mi Calm Calm - 0.08 in   Overcast
8:55 AM 35.6 °F 31.7 °F 33.8 °F 93% 29.80 in 2.5 mi East 4.6 mph - 0.12 in   Overcast
9:15 AM 35.6 °F 29.9 °F 33.8 °F 93% 29.77 in 4.0 mi East 6.9 mph - 0.03 in   Overcast
9:35 AM 35.6 °F 28.6 °F 33.8 °F 93% 29.77 in 8.0 mi East 9.2 mph - 0.03 in   Overcast
9:55 AM 35.6 °F 28.6 °F 33.8 °F 93% 29.75 in 10.0 mi East 9.2 mph - 0.03 in   Overcast
10:15 AM 35.6 °F 29.2 °F 35.6 °F 100% 29.75 in 10.0 mi East 8.1 mph - N/A   Overcast
10:35 AM 37.4 °F 32.1 °F 35.6 °F 93% 29.75 in 10.0 mi East 6.9 mph - N/A   Overcast
10:55 AM 37.4 °F 32.1 °F 35.6 °F 93% 29.74 in 3.0 mi NE 6.9 mph - N/A   Overcast
11:15 AM 37.4 °F 32.1 °F 35.6 °F 93% 29.74 in 5.0 mi NNE 6.9 mph - 0.01 in   Overcast
11:35 AM 37.4 °F 32.8 °F 35.6 °F 93% 29.74 in 3.0 mi NE 5.8 mph - 0.03 in   Overcast
11:55 AM 37.4 °F 32.1 °F 35.6 °F 93% 29.74 in 6.0 mi North 6.9 mph - 0.08 in   Overcast
12:15 PM 37.4 °F 30.8 °F 35.6 °F 93% 29.74 in 7.0 mi North 9.2 mph - 0.06 in   Overcast
12:35 PM 37.4 °F 31.4 °F 35.6 °F 93% 29.74 in 7.0 mi North 8.1 mph - 0.11 in   Overcast
12:55 PM 37.4 °F 30.8 °F 35.6 °F 93% 29.73 in 8.0 mi NNE 9.2 mph - 0.17 in   Overcast
1:15 PM 37.4 °F 31.4 °F 35.6 °F 93% 29.72 in 7.0 mi NE 8.1 mph - 0.04 in   Overcast
1:35 PM 37.4 °F 30.8 °F 37.4 °F 100% 29.71 in 6.0 mi NNE 9.2 mph - 0.07 in   Overcast
1:55 PM 37.4 °F 31.4 °F 35.6 °F 93% 29.72 in 7.0 mi NE 8.1 mph - 0.10 in   Overcast
2:15 PM 37.4 °F 30.3 °F 35.6 °F 93% 29.72 in 8.0 mi NNE 10.4 mph - 0.04 in   Overcast
2:35 PM 37.4 °F 30.3 °F 35.6 °F 93% 29.71 in 9.0 mi NE 10.4 mph - 0.08 in   Overcast
2:55 PM 37.4 °F 29.3 °F 35.6 °F 93% 29.70 in 8.0 mi NE 12.7 mph - 0.11 in   Overcast
3:15 PM 37.4 °F 28.5 °F 37.4 °F 100% 29.68 in 9.0 mi ENE 15.0 mph - 0.02 in   Overcast
3:35 PM 37.4 °F 29.3 °F 35.6 °F 93% 29.68 in 10.0 mi ENE 12.7 mph - 0.02 in   Overcast
3:55 PM 37.4 °F 29.3 °F 35.6 °F 93% 29.68 in 10.0 mi ENE 12.7 mph - 0.03 in   Overcast
4:15 PM 37.4 °F 29.3 °F 35.6 °F 93% 29.67 in 10.0 mi East 12.7 mph - N/A   Overcast
4:35 PM 37.4 °F 29.8 °F 35.6 °F 93% 29.66 in 10.0 mi East 11.5 mph - N/A   Overcast
4:55 PM 37.4 °F 29.3 °F 35.6 °F 93% 29.66 in 9.0 mi East 12.7 mph - 0.01 in   Overcast
5:15 PM 37.4 °F 29.3 °F 35.6 °F 93% 29.66 in 9.0 mi East 12.7 mph - 0.04 in   Overcast
5:35 PM 37.4 °F 29.3 °F 35.6 °F 93% 29.65 in 10.0 mi ENE 12.7 mph - 0.11 in   Overcast
5:55 PM 37.4 °F 28.9 °F 35.6 °F 93% 29.63 in 10.0 mi ENE 13.8 mph - 0.16 in   Overcast
6:15 PM 37.4 °F 29.3 °F 35.6 °F 93% 29.64 in 10.0 mi ENE 12.7 mph - 0.04 in   Overcast
6:35 PM 37.4 °F 28.9 °F 33.8 °F 87% 29.63 in 10.0 mi ENE 13.8 mph - 0.10 in   Overcast
6:55 PM 37.4 °F 28.9 °F 35.6 °F 93% 29.61 in 9.0 mi NE 13.8 mph 21.9 mph 0.16 in   Overcast
7:15 PM 37.4 °F 29.3 °F 35.6 °F 93% 29.61 in 5.0 mi NE 12.7 mph 19.6 mph 0.08 in   Overcast
7:35 PM 37.4 °F 28.2 °F 35.6 °F 93% 29.59 in 5.0 mi NE 16.1 mph - 0.15 in   Overcast
7:55 PM 37.4 °F 27.5 °F 33.8 °F 87% 29.56 in 7.0 mi ENE 18.4 mph 25.3 mph 0.19 in   Overcast
8:15 PM 37.4 °F 28.2 °F 35.6 °F 93% 29.56 in 10.0 mi ENE 16.1 mph - 0.02 in   Overcast
8:35 PM 37.4 °F 26.9 °F 35.6 °F 93% 29.55 in 8.0 mi ENE 20.7 mph - 0.05 in   Overcast
8:55 PM 35.6 °F 24.2 °F 35.6 °F 100% 29.51 in 5.0 mi ENE 21.9 mph - 0.09 in   Overcast
9:15 PM 35.6 °F 24.5 °F 33.8 °F 93% 29.52 in 4.0 mi ENE 20.7 mph 24.2 mph 0.06 in   Overcast
9:35 PM 35.6 °F 25.2 °F 33.8 °F 93% 29.50 in 8.0 mi ENE 18.4 mph 21.9 mph 0.09 in   Overcast
9:55 PM 35.6 °F 29.2 °F 33.8 °F 93% 29.54 in 10.0 mi North 8.1 mph 21.9 mph 0.11 in   Overcast
10:15 PM 35.6 °F 28.0 °F 33.8 °F 93% 29.54 in 10.0 mi NE 10.4 mph 24.2 mph N/A   Overcast
10:35 PM 35.6 °F 24.8 °F 33.8 °F 93% 29.51 in 7.0 mi ENE 19.6 mph 24.2 mph 0.01 in   Overcast
10:55 PM 35.6 °F 24.0 °F 32.0 °F 87% 29.47 in 10.0 mi East 23.0 mph 32.2 mph 0.01 in   Overcast
11:15 PM 35.6 °F 24.5 °F 32.0 °F 87% 29.46 in 10.0 mi ENE 20.7 mph - N/A   Overcast
11:35 PM 35.6 °F 25.5 °F 33.8 °F 93% 29.47 in 10.0 mi ENE 17.3 mph 24.2 mph N/A   Overcast
11:55 PM 35.6 °F 28.0 °F 32.0 °F 87% 29.51 in 7.0 mi East 10.4 mph - N/A   Overcast